CW6617 Weather Reports


time (UTC)temp
C
wind
direction
speed
KPH
gust
KPH
rain 1hr
cm
rain 24hr
cm
rain mn
cm
humidity
%
barometer
mb
20260505083704 11 64 4.8 11.3 0.00 0.00 0.00 87 1013.2
20260505083205 11 297 1.6 12.9 0.00 0.00 0.00 87 1013.3
20260505081203 11 310 4.8 8.0 0.00 0.00 0.00 88 1013.3
20260505080703 11 311 1.6 8.0 0.00 0.00 0.00 88 1013.2
20260505080204 11 41 1.6 14.5 0.00 0.00 0.00 88 1013.3
20260505074703 11 320 3.2 12.9 0.00 0.00 0.00 88 1013.1
20260505074204 11 358 3.2 9.7 0.00 0.00 0.00 88 1013.2
20260505073704 11 299 4.8 12.9 0.00 0.00 0.00 88 1013.2
20260505073203 11 345 3.2 12.9 0.00 0.00 0.00 88 1013.2
20260505071704 11 330 1.6 8.0 0.00 0.00 0.00 88 1013.3
20260505070206 11 29 3.2 11.3 0.00 0.00 0.00 89 1013.3
20260505064704 11 9 3.2 9.7 0.00 0.00 0.00 91 1013.4
20260505064203 11 320 3.2 4.8 0.00 0.00 0.00 91 1013.4
20260505063704 11 309 4.8 9.7 0.00 0.00 0.00 91 1013.3
20260505063204 11 342 1.6 9.7 0.00 0.00 0.00 92 1013.4
20260505061704 10 317 1.6 3.2 0.00 0.00 0.00 92 1013.2
20260505061204 10 320 1.6 4.8 0.00 0.00 0.00 91 1013.2
20260505060703 10 10 3.2 8.0 0.00 0.00 0.00 92 1013.3
20260505060204 10 297 1.6 9.7 0.00 0.00 0.00 92 1013.3
20260505054203 10 319 3.2 4.8 0.00 0.00 0.00 92 1013.3
20260505053706 10 19 1.6 4.8 0.00 0.00 0.00 92 1013.4
20260505053203 10 313 1.6 4.8 0.00 0.00 0.00 92 1013.4
20260505051704 10 47 1.6 8.0 0.00 0.00 0.00 92 1013.3
20260505051203 10 59 3.2 8.0 0.00 0.00 0.00 92 1013.3
20260505050703 10 61 3.2 9.7 0.00 0.00 0.00 92 1013.3
20260505050203 10 5 0.0 8.0 0.00 0.00 0.00 92 1013.3
20260505041703 10 314 3.2 8.0 0.00 0.00 0.00 92 1013.5
20260505041204 10 304 1.6 4.8 0.00 0.00 0.00 92 1013.6
20260505040704 10 309 3.2 8.0 0.00 0.00 0.00 92 1013.6
20260505034704 10 51 1.6 3.2 0.00 0.00 0.00 92 1013.5
20260505034204 10 51 0.0 1.6 0.00 0.00 0.00 91 1013.5
20260505033704 10 51 0.0 1.6 0.00 0.00 0.00 91 1013.4
20260505033203 10 51 0.0 3.2 0.00 0.00 0.00 91 1013.5
20260505031704 10 51 0.0 1.6 0.00 0.00 0.00 90 1013.4
20260505030704 10 51 0.0 3.2 0.00 0.00 0.00 90 1013.4
20260505030203 10 51 0.0 1.6 0.00 0.00 0.00 90 1013.3
20260505024704 10 51 1.6 3.2 0.00 0.00 0.00 90 1013.3
20260505024204 10 51 1.6 3.2 0.00 0.00 0.00 90 1013.4
20260505023703 10 52 1.6 8.0 0.00 0.00 0.00 90 1013.4
20260505023203 10 314 0.0 4.8 0.00 0.00 0.00 89 1013.4
20260505021704 11 309 1.6 4.8 0.00 0.00 0.00 90 1013.4
20260505021203 11 307 3.2 4.8 0.00 0.00 0.00 90 1013.4
20260505020703 11 19 1.6 8.0 0.00 0.00 0.00 90 1013.5
20260505020204 11 57 1.6 4.8 0.00 0.00 0.00 90 1013.6
20260505014704 11 332 3.2 4.8 0.00 0.00 0.00 89 1013.5
20260505013704 11 46 0.0 3.2 0.00 0.00 0.00 89 1013.9
20260505013203 11 45 1.6 8.0 0.00 0.00 0.00 89 1013.7
20260505011704 11 21 3.2 8.0 0.00 0.00 0.00 88 1013.9
20260505011204 11 338 1.6 3.2 0.00 0.00 0.00 88 1014.0
20260505010704 11 326 0.0 3.2 0.00 0.00 0.00 88 1013.9
20260505010204 11 326 1.6 4.8 0.00 0.00 0.00 88 1014.0
20260505004203 11 342 1.6 3.2 0.00 0.00 0.00 88 1013.9
20260505003704 11 344 1.6 4.8 0.00 0.00 0.00 88 1013.8
20260505003203 11 48 1.6 8.0 0.00 0.00 0.00 88 1014.0
20260505001203 11 60 4.8 9.7 0.00 0.00 0.00 87 1014.1
20260505000703 11 50 4.8 9.7 0.00 0.00 0.00 87 1014.2
20260505000204 11 47 3.2 11.3 0.00 0.00 0.00 87 1014.3
20260504234704 11 30 1.6 8.0 0.00 0.00 0.00 87 1014.3
20260504234204 11 58 3.2 9.7 0.00 0.00 0.00 87 1014.4
20260504233704 11 39 3.2 11.3 0.00 0.00 0.00 87 1014.5
20260504233204 11 69 6.4 11.3 0.00 0.00 0.00 87 1014.5
20260504231703 11 70 3.2 11.3 0.00 0.00 0.00 87 1014.5
20260504231204 11 52 1.6 8.0 0.00 0.00 0.00 87 1014.6
20260504230703 11 57 3.2 11.3 0.00 0.00 0.00 87 1014.6
20260504230204 12 60 3.2 11.3 0.00 0.00 0.00 87 1014.5
20260504224704 12 6 4.8 9.7 0.00 0.00 0.00 87 1014.6
20260504224204 12 68 3.2 8.0 0.00 0.00 0.00 86 1014.6
20260504223704 12 52 0.0 4.8 0.00 0.00 0.00 86 1014.7
20260504221704 12 16 3.2 9.7 0.00 0.00 0.00 85 1014.5
20260504221204 12 351 3.2 8.0 0.00 0.00 0.00 85 1014.6
20260504220704 12 5 1.6 12.9 0.00 0.00 0.00 85 1014.6
20260504214704 12 34 4.8 9.7 0.00 0.00 0.00 84 1014.7
20260504214204 12 2 1.6 8.0 0.00 0.00 0.00 84 1014.7
20260504213203 13 351 4.8 12.9 0.00 0.00 0.00 84 1014.8
20260504211204 13 45 1.6 9.7 0.00 0.00 0.00 84 1014.9
20260504210705 13 10 1.6 9.7 0.00 0.00 0.00 84 1014.8
20260504204703 13 20 4.8 19.3 0.00 0.00 0.00 84 1014.9
20260504204204 13 10 3.2 9.7 0.00 0.00 0.00 84 1014.8
20260504203704 13 22 4.8 12.9 0.00 0.00 0.00 84 1014.7
20260504203204 13 32 3.2 8.0 0.00 0.00 0.00 84 1014.6
20260504201704 13 58 4.8 11.3 0.00 0.00 0.00 83 1014.6
20260504201203 13 48 6.4 12.9 0.00 0.00 0.00 84 1014.6
20260504200204 13 28 3.2 9.7 0.00 0.00 0.00 83 1014.5
20260504194704 13 42 4.8 9.7 0.00 0.00 0.00 83 1014.3
20260504193704 13 55 1.6 3.2 0.00 0.00 0.00 83 1014.1
20260504193204 13 55 1.6 9.7 0.00 0.00 0.00 83 1014.1
20260504191204 14 55 1.6 8.0 0.00 0.00 0.00 83 1014.0
20260504190204 14 34 1.6 9.7 0.00 0.00 0.00 83 1014.0
20260504184703 14 49 3.2 8.0 0.00 0.00 0.00 83 1014.1
20260504184204 14 59 1.6 9.7 0.00 0.00 0.00 82 1014.0
20260504183703 14 56 4.8 9.7 0.00 0.00 0.00 82 1014.0
20260504183204 14 55 3.2 11.3 0.00 0.00 0.00 82 1014.0
20260504181704 14 50 4.8 9.7 0.00 0.00 0.00 81 1014.0
20260504181204 14 48 4.8 9.7 0.00 0.00 0.00 81 1013.8
20260504180703 14 58 4.8 9.7 0.00 0.00 0.00 81 1013.7
20260504180203 15 49 4.8 16.1 0.00 0.00 0.00 81 1013.7
20260504174704 15 94 3.2 14.5 0.00 0.00 0.00 80 1013.6
20260504173704 15 47 1.6 9.7 0.00 0.00 0.00 80 1013.5
20260504173204 15 30 6.4 20.9 0.00 0.00 0.00 79 1013.5
20260504171704 15 48 3.2 12.9 0.00 0.00 0.00 78 1013.5
20260504171204 15 52 6.4 14.5 0.00 0.00 0.00 78 1013.5
20260504170703 15 36 6.4 20.9 0.00 0.00 0.00 78 1013.6
20260504170204 16 46 9.7 20.9 0.00 0.00 0.00 77 1013.6
20260504160204 15 9 4.8 20.9 0.00 0.00 0.00 80 1013.9
20260504150203 16 66 8.0 19.3 0.00 0.00 0.00 78 1014.0
20260504141204 17 39 11.3 16.1 0.00 0.00 0.00 72 1014.1
20260504140704 16 55 4.8 12.9 0.00 0.00 0.00 74 1014.2
20260504130704 15 142 1.6 4.8 0.00 0.00 0.00 80 1014.3
20260504130204 15 85 3.2 14.5 0.00 0.00 0.00 80 1014.3
20260504120203 15 54 3.2 11.3 0.00 0.00 0.00 83 1014.4
20260504110704 14 42 3.2 9.7 0.00 0.00 0.00 85 1014.5
20260504110205 14 39 3.2 11.3 0.00 0.00 0.00 86 1014.5